Date String (YYYY-MM-DD hh:mm:ss) UTC,Instrument flags,absolute air pressure of the measurement (hPa),sample flow rate (lpm),inlet stack bypass flow (lpm),air temperature of the measurement (°C),ambient temperature measured by the external sensor (°C),aerosol sample conditioner tube jacket temperature (°C),OPC LED temperature (°C),internal box temperature (°C),relative humidity of the measurement (%),span deviation,mass concentration of particles derived from Lorenz-Mie calculation of OPC scattering (μg/m³),mass concentration of particles derived from Lorenz-Mie calculation of OPC scattering (μg/m³),mass concentration of particles derived from Lorenz-Mie calculation of OPC scattering (μg/m³)
DateTimeUTC,F1_M11,P_M11,Q1_M11,Q2_M11,T1_M11,T2_M11,T3_M11,T4_M11,T5_M11,U1_M11,ZSPAN_M11,X0_M11,X2_M11,X1_M11
2023-10-20 00:00:00,SystemResetWarning,0833.2,5.00,000.00,028.0,024.9,000.0,036.5,029.6,13.4,0000.0,0020.41,0003.28,0001.01
2023-10-20 00:01:00,SystemResetWarning,0833.2,5.00,000.00,028.0,025.3,000.0,036.5,029.6,13.4,0000.0,0021.60,0003.39,0001.02
2023-10-20 00:02:00,SystemResetWarning,0833.2,5.00,000.00,028.0,025.8,000.0,036.5,029.7,13.4,0000.0,0022.10,0003.52,0001.02
2023-10-20 00:03:00,SystemResetWarning,0833.2,5.00,000.00,028.1,026.1,000.0,036.5,029.8,13.4,0000.0,0022.26,0003.61,0001.03
2023-10-20 00:04:00,SystemResetWarning,0833.2,4.99,000.00,028.1,026.5,000.0,036.5,029.9,13.3,0000.0,0022.38,0003.62,0001.02
2023-10-20 00:05:00,SystemResetWarning,0833.3,5.00,000.00,028.2,026.7,000.0,036.5,030.0,13.3,0000.0,0022.05,0003.55,0001.01
2023-10-20 00:06:00,SystemResetWarning,0833.3,5.00,000.00,028.2,027.0,000.0,036.5,030.1,13.2,0000.0,0020.72,0003.45,0001.01
2023-10-20 00:07:00,SystemResetWarning,0833.2,5.00,000.00,028.3,027.2,000.0,036.6,030.1,13.2,0000.0,0019.11,0003.42,0001.01
2023-10-20 00:08:00,SystemResetWarning,0833.3,5.00,000.00,028.3,027.4,000.0,036.6,030.2,13.2,0000.0,0019.15,0003.44,0001.02
2023-10-20 00:09:00,SystemResetWarning,0833.3,4.99,000.00,028.4,026.8,000.0,036.6,030.2,13.1,0000.0,0019.56,0003.38,0001.02
2023-10-20 00:10:00,SystemResetWarning,0833.2,4.99,000.00,028.3,024.9,000.0,036.6,030.0,13.1,0000.0,0018.80,0003.35,0001.01
2023-10-20 00:11:00,SystemResetWarning,0833.3,5.01,000.00,028.2,024.0,000.0,036.5,029.8,13.2,0000.0,0017.39,0003.27,0001.00
2023-10-20 00:12:00,SystemResetWarning,0833.2,5.01,000.00,028.1,024.3,000.0,036.5,029.6,13.3,0000.0,0015.95,0003.13,0000.97
2023-10-20 00:13:00,SystemResetWarning,0833.2,5.00,000.00,028.0,024.6,000.0,036.5,029.5,13.4,0000.0,0014.60,0002.99,0000.96
2023-10-20 00:14:00,SystemResetWarning,0833.3,5.01,000.00,028.0,025.1,000.0,036.5,029.6,13.4,0000.0,0014.06,0002.82,0000.96
2023-10-20 00:15:00,SystemResetWarning,0833.3,5.00,000.00,028.0,025.6,000.0,036.5,029.7,13.4,0000.0,0014.28,0002.69,0000.95
2023-10-20 00:16:00,SystemResetWarning,0833.3,4.99,000.00,028.1,025.9,000.0,036.5,029.8,13.4,0000.0,0014.10,0002.74,0000.96
2023-10-20 00:17:00,SystemResetWarning,0833.3,5.00,000.00,028.1,026.3,000.0,036.5,029.9,13.4,0000.0,0014.62,0002.69,0000.96
2023-10-20 00:18:00,SystemResetWarning,0833.3,5.00,000.00,028.1,026.6,000.0,036.5,029.9,13.3,0000.0,0016.56,0002.70,0000.96
2023-10-20 00:19:00,SystemResetWarning,0833.3,5.00,000.00,028.2,026.9,000.0,036.5,030.0,13.3,0000.0,0016.63,0002.66,0000.95
2023-10-20 00:20:00,SystemResetWarning,0833.3,5.01,000.00,028.2,027.1,000.0,036.6,030.1,13.2,0000.0,0015.40,0002.74,0000.94
2023-10-20 00:21:00,SystemResetWarning,0833.4,4.98,000.00,028.3,027.3,000.0,036.6,030.2,13.1,0000.0,0015.36,0002.82,0000.94
2023-10-20 00:22:00,SystemResetWarning,0833.3,4.99,000.00,028.3,027.1,000.0,036.6,030.2,13.1,0000.0,0014.93,0002.78,0000.95
2023-10-20 00:23:00,SystemResetWarning,0833.3,5.00,000.00,028.3,025.6,000.0,036.6,030.0,13.1,0000.0,0014.41,0002.84,0000.94
2023-10-20 00:24:00,SystemResetWarning,0833.3,5.01,000.00,028.3,024.9,000.0,036.5,029.9,13.4,0000.0,0013.85,0002.81,0000.95
2023-10-20 00:25:00,SystemResetWarning,0833.3,5.01,000.00,028.2,025.0,000.0,036.5,029.8,13.5,0000.0,0014.40,0002.83,0000.94
2023-10-20 00:26:00,SystemResetWarning,0833.3,4.99,000.00,028.1,025.3,000.0,036.5,029.7,13.5,0000.0,0014.02,0002.90,0000.94
2023-10-20 00:27:00,SystemResetWarning,0833.4,4.99,000.00,028.1,025.7,000.0,036.6,029.8,13.6,0000.0,0013.87,0002.91,0000.94
2023-10-20 00:28:00,SystemResetWarning,0833.4,5.00,000.00,028.2,026.1,000.0,036.6,029.9,13.5,0000.0,0014.12,0002.96,0000.93
2023-10-20 00:29:00,SystemResetWarning,0833.4,5.01,000.00,028.2,026.4,000.0,036.6,030.0,13.5,0000.0,0012.59,0002.96,0000.92
2023-10-20 00:30:00,SystemResetWarning,0833.4,5.01,000.00,028.2,026.7,000.0,036.6,030.0,13.4,0000.0,0012.42,0002.97,0000.92
2023-10-20 00:31:00,SystemResetWarning,0833.4,4.99,000.00,028.3,026.9,000.0,036.6,030.1,13.4,0000.0,0013.48,0003.04,0000.93
2023-10-20 00:32:00,SystemResetWarning,0833.4,5.00,000.00,028.3,027.1,000.0,036.7,030.2,13.4,0000.0,0014.86,0003.06,0000.94
2023-10-20 00:33:00,SystemResetWarning,0833.4,5.01,000.00,028.4,027.2,000.0,036.7,030.2,13.4,0000.0,0015.22,0003.05,0000.94
2023-10-20 00:34:00,SystemResetWarning,0833.4,4.99,000.00,028.4,025.7,000.0,036.6,030.1,13.5,0000.0,0015.78,0003.06,0000.94
2023-10-20 00:35:00,SystemResetWarning,0833.4,5.01,000.00,028.3,024.7,000.0,036.6,029.9,13.7,0000.0,0016.63,0003.11,0000.94
2023-10-20 00:36:00,SystemResetWarning,0833.4,5.02,000.00,028.2,024.8,000.0,036.6,029.8,13.8,0000.0,0016.06,0003.10,0000.94
2023-10-20 00:37:00,SystemResetWarning,0833.4,5.00,000.00,028.2,025.1,000.0,036.6,029.7,14.0,0000.0,0017.13,0003.14,0000.94
2023-10-20 00:38:00,SystemResetWarning,0833.4,5.00,000.00,028.1,025.5,000.0,036.6,029.8,14.1,0000.0,0018.15,0003.13,0000.94
2023-10-20 00:39:00,SystemResetWarning,0833.4,5.00,000.00,028.1,025.9,000.0,036.6,029.8,14.2,0000.0,0017.65,0003.18,0000.95
2023-10-20 00:40:00,SystemResetWarning,0833.4,5.01,000.00,028.2,026.2,000.0,036.6,029.9,14.2,0000.0,0017.79,0003.21,0000.96
2023-10-20 00:41:00,SystemResetWarning,0833.4,5.00,000.00,028.2,026.5,000.0,036.6,030.0,14.2,0000.0,0019.05,0003.25,0000.97
2023-10-20 00:42:00,SystemResetWarning,0833.5,5.00,000.00,028.2,026.7,000.0,036.6,030.0,14.2,0000.0,0018.97,0003.22,0000.97
2023-10-20 00:43:00,SystemResetWarning,0833.4,5.00,000.00,028.3,027.0,000.0,036.7,030.1,14.3,0000.0,0017.88,0003.21,0000.96
2023-10-20 00:44:00,SystemResetWarning,0833.4,5.00,000.00,028.3,027.1,000.0,036.7,030.2,14.4,0000.0,0017.08,0003.21,0000.96
2023-10-20 00:45:00,SystemResetWarning,0833.5,4.99,000.00,028.4,027.3,000.0,036.7,030.2,14.3,0000.0,0017.04,0003.24,0000.96
2023-10-20 00:46:00,SystemResetWarning,0833.5,4.98,000.00,028.4,026.2,000.0,036.7,030.2,14.3,0000.0,0016.39,0003.22,0000.96
2023-10-20 00:47:00,SystemResetWarning,0833.5,5.01,000.00,028.3,024.8,000.0,036.6,030.0,14.0,0000.0,0017.16,0003.24,0000.96
2023-10-20 00:48:00,SystemResetWarning,0833.5,5.01,000.00,028.3,024.7,000.0,036.6,029.9,14.1,0000.0,0017.81,0003.22,0000.96
2023-10-20 00:49:00,SystemResetWarning,0833.6,5.01,000.00,028.2,024.9,000.0,036.6,029.7,14.2,0000.0,0017.27,0003.26,0000.95
2023-10-20 00:50:00,SystemResetWarning,0833.6,5.00,000.00,028.1,025.3,000.0,036.6,029.8,14.3,0000.0,0017.17,0003.25,0000.94
2023-10-20 00:51:00,SystemResetWarning,0833.6,5.00,000.00,028.1,025.7,000.0,036.6,029.8,14.4,0000.0,0016.60,0003.22,0000.94
2023-10-20 00:52:00,SystemResetWarning,0833.6,5.01,000.00,028.2,026.0,000.0,036.6,029.9,14.4,0000.0,0016.26,0003.19,0000.94
2023-10-20 00:53:00,SystemResetWarning,0833.6,5.00,000.00,028.2,026.4,000.0,036.6,029.9,14.4,0000.0,0016.61,0003.18,0000.94
2023-10-20 00:54:00,SystemResetWarning,0833.7,5.00,000.00,028.2,026.6,000.0,036.6,030.0,14.3,0000.0,0016.27,0003.14,0000.93
2023-10-20 00:55:00,SystemResetWarning,0833.7,5.00,000.00,028.3,026.8,000.0,036.7,030.1,14.3,0000.0,0016.47,0003.05,0000.93
2023-10-20 00:56:00,SystemResetWarning,0833.7,5.00,000.00,028.3,027.0,000.0,036.7,030.1,14.2,0000.0,0016.88,0002.97,0000.94
2023-10-20 00:57:00,SystemResetWarning,0833.7,4.99,000.00,028.3,027.2,000.0,036.7,030.2,14.3,0000.0,0017.42,0003.05,0000.96
2023-10-20 00:58:00,SystemResetWarning,0833.7,4.99,000.00,028.4,026.6,000.0,036.7,030.2,14.1,0000.0,0017.01,0003.02,0000.97
2023-10-20 00:59:00,SystemResetWarning,0833.7,5.00,000.00,028.3,024.6,000.0,036.6,029.9,14.1,0000.0,0016.22,0003.08,0000.98
